Regional Weather Roundup
Issued by NWS Boston, MA

Current Version | Previous Version | Text Only | Print | Product List | Glossary Off
Versions: 1 2 3 4 5 6 7 8 9 10 11 12 13 14 15 16 17 18 19 20 21 22 23 24 25 26 27

000
ASUS41 KBOX 160810
RWRBOX

REGIONAL WEATHER ROUNDUP
NATIONAL WEATHER SERVICE TAUNTON MA
400 AM EDT WED AUG 16 2017

NOTE:  "FAIR" INDICATES FEW OR NO CLOUDS BELOW 12,000 FEET WITH NO
SIGNIFICANT WEATHER AND/OR OBSTRUCTIONS TO VISIBILITY.

MAZALL-160900-
EASTERN MASSACHUSETTS

CITY           SKY/WX    TMP DP  RH WIND       PRES   REMARKS
BOSTON         PTCLDY    67  65  93 SW8       29.88R
BEVERLY        CLEAR     66  65  96 CALM      29.87S FOG
LAWRENCE       PTCLDY    68  65  90 S5        29.89S
BEDFORD        PTCLDY    63  60  90 CALM      29.87S
BLUE HILL        N/A     66  64  93 SW9       29.89S
NORWOOD        CLEAR     66  65  96 CALM      29.87F
MARSHFIELD     MOCLDY    68  68 100 W8        29.88S
PLYMOUTH       CLOUDY    66  65  96 W8        29.90R
TAUNTON        MOCLDY    66  64  93 SW3       29.89S
NEW BEDFORD    CLOUDY    68  66  93 VRB3      29.89S
$$

MAZALL-160900-
CAPE COD AND THE ISLANDS

CITY           SKY/WX    TMP DP  RH WIND       PRES   REMARKS
FALMOUTH       MOCLDY    66  66 100 W5        29.90S
HYANNIS        PTCLDY    67  67 100 SW7       29.88R
CHATHAM        CLEAR     68  68 100 VRB3      29.89S
PROVINCETOWN   MOCLDY    67  66  97 W9        29.90R
NANTUCKET      CLOUDY    67  67 100 W5        29.89S
MARTHAS VNYRD  MOCLDY    65  64  97 NW9       29.89S FOG
$$

MAZALL-160900-
CENTRAL AND WESTERN MASSACHUSETTS

CITY           SKY/WX    TMP DP  RH WIND       PRES   REMARKS
WORCESTER      PTCLDY    65  63  93 W9        29.91F
FITCHBURG      CLEAR     67  65  93 CALM      29.90R
ORANGE         FOG       64  64 100 CALM      29.90F VSB 1/4
SPRINGFIELD    CLOUDY    67  66  95 CALM      29.89S
WESTFIELD      FOG       65  65 100 CALM      29.90S VSB 1/4
NORTH ADAMS    FOG       61  60  97 CALM      29.93S VSB 1/4
PITTSFIELD     CLEAR     63  61  93 SW5       29.93F
$$

RIZALL-160900-
RHODE ISLAND

CITY           SKY/WX    TMP DP  RH WIND       PRES   REMARKS
PROVIDENCE     PTCLDY    67  67 100 SW6       29.90F
NEWPORT        CLOUDY    67  67 100 W5        29.90S FOG
BLOCK ISLAND   FOG       68  66  94 W6        29.91S VSB 3/4
WESTERLY       CLOUDY    68  66  93 CALM      29.92R
$$

CTZALL-160900-
CONNECTICUT

CITY           SKY/WX    TMP DP  RH WIND       PRES   REMARKS
BRADLEY INTL   PTCLDY    63  63 100 NW6       29.90S FOG
HARTFORD       CLEAR     68  67  96 S3        29.89S FOG
BRIDGEPORT     CLOUDY    73  69  87 SW6       29.90F
DANBURY        CLOUDY    70  69  97 W3        29.93S FOG
GROTON         CLOUDY    68  66  93 N3        29.91R
NEW HAVEN      CLOUDY    72  69  90 VRB3      29.91S
CHESTER        NOT AVBL
MERIDEN        MOCLDY    69  67  93 SE3       29.91R
WILLIMANTIC    CLOUDY    69  68  96 CALM      29.91R
OXFORD         CLOUDY    68  68 100 W3        29.93S FOG
$$

MEZ002-015-021-024-NHZ003-005-008-011-012-014-VTZ005-008-160900-
NORTHERN NEW ENGLAND

CITY           SKY/WX    TMP DP  RH WIND       PRES   REMARKS
PORTLAND ME    MOCLDY    68  64  87 W6        29.84S
BANGOR ME      MOCLDY    65  64  97 CALM      29.81F FOG
CONCORD NH     CLEAR     62  61  96 CALM      29.88R
MANCHESTER NH  PTCLDY    66  62  87 CALM      29.86S
NASHUA NH      CLEAR     62  62 100 CALM      29.89S
PORTSMOUTH NH  PTCLDY    66  64  93 W5        29.84S
JAFFREY NH     MOCLDY    65  65 100 CALM      29.92S
KEENE NH         N/A    N/A N/A N/A MISG        N/A
BURLINGTON VT  FOG       62  62 100 CALM      29.91R VSB 1/4
MT. WASHINGTON DRZL/FOG  46  46 100 NW43G53     N/A  VSB 0
$$

NYZ052-076-160900-
EASTERN NEW YORK

CITY           SKY/WX    TMP DP  RH WIND       PRES   REMARKS
ALBANY         PTCLDY    64  60  87 CALM      29.92S
NEW YORK CITY  MOCLDY    72  71  97 SW3       29.90F
$$

ANZALL-160900-
MARINE OBSERVATIONS

STATION/POSITION TIME  TEMP    WIND        PRES    VSBY  WAVE
                       AIR SEA DIR/SP/G                  HT/PER
                 (UTC) (F)     (DEG/KT/KT) (MB)    (MI)  (FT/S)
BOSTON BUOY      0750   66 67  240/  8/ 10 1011.5R         1/ 7
BUZZARDS BAY     0700   69     260/ 11/ 12 1012.7R
NANTUCKET SOUND  0750   69 71  250/  8/  8 1012.0F         1
MASS BAY-STELLWA 0704   67 67  240/ 12/ 14 1010.7R         2/ 6
ISLE OF SHOALS   0700   67     240/ 14/ 15 1010.5R
S OF BLOCK IS    0743      69                N/A           6/12
$$

......................KEY.........................
  SKY/WX - SKY CONDITION/PRESENT WEATHER
  TMP    - TEMPERATURE IN FAHRENHEIT
  DWPT   - DEWPOINT IN FAHRENHEIT
  RH     - RELATIVE HUMIDITY IN PERCENT
  WIND   - DIRECTION AND SPEED IN MPH
  PRES   - MEAN SEA LEVEL PRESSURE IN INCHES OF HG
  WCI    - WIND CHILL INDEX
  VSB    - VISIBILITY IN MILES
  HX     - HEAT INDEX
  TC     - TEMPERATURE IN CELSIUS
  VRB    - VARIABLE WIND DIRECTION
  N/A    - NOT AVAILABLE




USA.gov is the U.S. government's official web portal to all federal, state and local government web resources and services.